Welcome to the New NWS' Forecast!
Most changes are behind the scenes, but click here for differences you might notice.
Latest weather observations around

Santa Ana, John Wayne Airport-Orange County Airport (KSNA)

Using English Units (Switch to International System of Units)
Date/ Time (PDT) Wind (mph) Vis. (mi) Weather Sky Cond. Temp (°F) Rel. Humidity Wind Chill (°F) Heat Index (°F) Pressure Precip. (in)
Air Dwpt 6 hour Altimeter (inHg) Sea level (inHg) 1 hr 3 hr 6 hr
Max Min
Aug 15 01:27 Calm 10 Cloudy OVC014 71 65     81%   72 29.89        
Aug 15 00:53 SW 3 10 Mostly Cloudy BKN018 71 65     81%   72 29.9 29.89      
Aug 14 23:53 SW 5 10 Clear CLR 71 65     81%   72 29.89 29.89      
Aug 14 22:53 SW 5 10 Partly Cloudy SCT011 72 65     79%   73 29.89 29.88      
Aug 14 21:53 WSW 5 10 Mostly Clear FEW011 72 64     76%   72 29.88 29.87      
Aug 14 20:53 WSW 7 10 Clear CLR 72 64     76%   72 29.86 29.85      
Aug 14 19:53 WSW 6 10 Mostly Clear FEW180 73 64     73%   73 29.84 29.83      
Aug 14 18:53 SSW 10 10 Mostly Clear FEW180 75 64     69%   75 29.83 29.82      
Aug 14 17:53 SW 8 10 Mostly Clear FEW180 77 63     62%   77 29.83 29.83      
Aug 14 16:53 SW 9 10 Partly Cloudy FEW017 FEW032 SCT180 79 62     56%   79 29.84 29.83      
Aug 14 15:53 SW 9 10 Partly Cloudy FEW017 FEW032 SCT180 77 63     62%   77 29.85 29.84      
Aug 14 14:53 SW 11 10 Mostly Clear FEW017 FEW032 79 63     58%   79 29.87 29.86      
Aug 14 13:53 SW 9 10 Mostly Clear FEW017 FEW032 79 63     58%   79 29.88 29.88      
Aug 14 12:53 SW 10 10 Partly Cloudy FEW017 FEW032 SCT150 79 63     58%   79 29.9 29.89      
Aug 14 11:53 WSW 7 10 Partly Cloudy FEW017 FEW032 SCT140 77 63     62%   77 29.91 29.91      
Aug 14 10:53 7 10 Mostly Clear FEW017 78 63     60%   78 29.91 29.91      
Aug 14 09:53 3 10 Mostly Clear FEW017 75 63     66%   75 29.92 29.91      
Aug 14 08:53 SSW 6 10 Partly Cloudy SCT015 73 62     68%   73 29.92 29.91      
Aug 14 07:53 Calm 10 Partly Cloudy SCT015 71 63     76%   71 29.92 29.91      
Aug 14 06:53 Calm 10 Mostly Clear FEW011 69 63     81%     29.91 29.9      
Aug 14 05:53 Calm 10 Mostly Clear FEW010 69 63     81%     29.89 29.89      
Aug 14 03:53 Calm 10 Clear CLR 69 63     81%     29.9 29.89      
Aug 14 02:53 Calm 10 Clear CLR 70 63     78%     29.9 29.9      
Aug 14 01:53 Calm 10 Clear CLR 70 63     78%     29.91 29.91      
Aug 14 00:53 W 3 10 Clear CLR 70 63     78%     29.92 29.92      
Aug 13 23:53 Calm 10 Clear CLR 71 63     76%   71 29.92 29.92      
Aug 13 22:53 W 3 10 Mostly Clear FEW012 71 63     76%   71 29.92 29.92      
Aug 13 20:53 SW 6 10 Clear CLR 71 63     76%   71 29.91 29.91      
Aug 13 19:53 WSW 6 10 Clear CLR 72 62     71%   72 29.9 29.89      
Aug 13 18:53 WSW 9 10 Clear CLR 74 61     64%   74 29.89 29.88      
Aug 13 17:53 SW 9 10 Clear CLR 78 60     54%   78 29.89 29.89      
Aug 13 16:53 SSW 13 10 Mostly Clear FEW040 79 61     54%   79 29.89 29.89      
Aug 13 15:53 WSW 9 10 Mostly Clear FEW040 79 63     58%   79 29.9 29.9      
Aug 13 14:53 SSW 10 10 Mostly Clear FEW038 81 61     51%   82 29.93 29.92      
Aug 13 13:53 SW 11 10 Mostly Clear FEW038 82 60     47%   82 29.94 29.94      
Aug 13 11:53 SSW 11 10 Mostly Clear FEW018 81 64     56%   83 29.97 29.97      
Aug 13 10:53 SW 8 10 Mostly Clear FEW018 79 63     58%   79 29.98 29.98      
Aug 13 09:53 WSW 3 10 Mostly Clear FEW017 78 63     60%   78 29.98 29.98      
Aug 13 08:53 Calm 10 Mostly Clear FEW017 75 63     66%   75 29.99 29.98      
Aug 13 07:53 Calm 10 Mostly Clear FEW015 72 64     76%   72 29.99 29.98      
Aug 13 06:53 Calm 10 Mostly Clear FEW015 71 64     79%   72 29.98 29.98      
Aug 13 06:49 Calm 10 Partly Cloudy SCT015 72 63     73%   72 29.99        
Aug 13 06:28 ESE 6 10 Mostly Cloudy BKN015 71 63     76%   71 29.99        
Aug 13 04:53 S 3 10 Mostly Clear FEW013 70 64     81%     29.96 29.96      
Aug 13 03:53 SW 3 9 Clear CLR 70 65     84%     29.96 29.96      
Aug 12 22:53 Calm 10 Clear CLR 72 64     76%   72 29.96 29.95      
Aug 12 20:53 WSW 5 10 Clear CLR 73 64     73%   73 29.94 29.94      
Aug 12 18:53 WSW 7 10 Mostly Clear FEW180 77 63     62%   77 29.91 29.91      
Aug 12 13:53 SW 13 10 Mostly Clear FEW055 FEW160 81 67     62%   83 29.96 29.95      
Aug 12 09:21 ESE 3 10 Partly Cloudy SCT012 77 68     74%   78 29.99        
Aug 12 06:53 SSE 5 10 Mostly Cloudy BKN010 72 66     82%   73 29.98 29.97      
Aug 12 03:53 SSW 6 10 Clear CLR 72 66     82%   73 29.94 29.94      
Aug 12 02:53 SW 5 10 Clear CLR 73 67     81%   74 29.95 29.94      
Aug 12 01:53 Calm 10 Clear CLR 73 68     84%   74 29.95 29.95      
Aug 11 23:53 SSW 3 10 Clear CLR 73 68     84%   74 29.96 29.96      
Aug 11 23:06 SW 5 10 Partly Cloudy SCT009 74 68     82%   75 29.96        
May 14 17:53 W 8 10 Clear CLR 65 52     63%     29.94 29.94      
May 14 15:53 SW 9 10 Mostly Clear FEW029 67 51     57%     29.96 29.96      
May 14 08:53 3 10 Partly Cloudy SCT017 63 52     67%     29.99 29.99      
May 13 20:53 W 7 10 Clear CLR 61 54     78%     29.98 29.98      
May 13 14:53 SW 10 10 Partly Cloudy SCT044 69 50     51%     29.98 29.98      
May 12 18:53 S 10 10 Mostly Cloudy FEW043 BKN050 62 52     70%     29.96 29.96      
May 12 04:53 SE 3 8 Light Rain SCT013 BKN018 OVC025 57 55     93%     29.91 29.91 0   0
May 11 23:28 5 10 Cloudy BKN010 BKN015 OVC027 59 57     93%     29.9        
May 11 21:53 SE 8 8 Cloudy SCT013 BKN018 OVC036 60 56     86%     29.87 29.87      
May 11 18:53 SE 9 9 Cloudy FEW011 SCT022 OVC026 60 55     83%     29.82 29.82      
May 11 17:53 SSE 13 10 Cloudy SCT020 BKN024 OVC031 61 54     78%     29.83 29.82      
May 11 09:53 SSE 16 9 Cloudy SCT027 OVC030 65 52     63%     29.87 29.87      
Jun 11 23:53 W 7 10 Cloudy OVC037 63 53     70%     29.99 29.98      
Jun 11 19:53 S 8 10 Partly Cloudy FEW023 SCT028 SCT035 64 54     70%     29.93 29.93      
Jun 11 14:53 SSW 18 10 Partly Cloudy FEW033 SCT038 71 53     53%   70 29.92 29.91      
Jun 11 12:53 SSE 10 10 Mostly Cloudy SCT028 BKN036 69 53     57%     29.92 29.92      
Jun 11 07:53 ESE 8 10 Cloudy BKN022 BKN030 OVC035 62 56     80%     29.89 29.89      
Jun 08 14:53 W 9 9 Mostly Clear FEW027 FEW250 72 58     61%   72 29.98 29.97      
Jun 07 22:53 3 7 Cloudy FEW013 OVC015 63 57     81%     29.98 29.98      
Jun 07 19:53 SSW 9 8 Cloudy SCT013 OVC016 63 57     81%     29.96 29.96      
Jun 07 08:59 SW 5 4 Fog/Mist SCT007 BKN010 OVC014 62 60     93%     29.95        
Jun 06 12:53 SW 7 10 Cloudy OVC013 66 59     78%     29.95 29.95      
Jun 06 00:53 S 5 10 Cloudy OVC012 63 58     84%     29.9 29.89